Temperature
16 16 16 17 18 18 19 19 19 20 21 20 18 18 19 21 21 21 21 21 21 21 21 20 19 18 18 17 16 15 15 14 13 12 12 12 11 11 11 11 11 11 10 10
16 15 17 19 19 19 18 18 18 20 21 20 18 18 19 19 20 21 21 21 21 21 21 20 19 18 17 17 16 15 15 14 13 13 12 12 12 11 11 11 11 11 10 10
16 17 18 18 18 18 18 17 18 18 19 19 18 17 19 20 21 21 21 21 21 21 20 20 19 18 17 16 16 16 15 14 13 13 12 12 11 11 11 11 11 10 10 10
17 18 18 18 18 18 17 19 19 18 17 17 18 16 18 19 20 20 21 21 21 21 20 19 18 17 17 16 16 15 15 14 13 12 12 12 11 11 11 11 11 10 10 10
17 18 17 17 18 18 18 19 18 18 17 16 16 16 17 19 19 20 20 21 20 20 19 19 18 17 16 16 15 15 14 14 13 12 12 12 11 11 11 11 11 10 10 10
17 18 18 18 19 19 18 18 17 17 16 14 16 16 17 19 20 20 20 20 20 19 19 18 17 17 16 15 15 14 14 14 13 12 12 11 11 11 11 10 10 10 10 10
16 17 18 18 17 17 17 16 14 14 13 14 17 17 17 20 20 20 20 20 19 19 18 17 16 16 15 15 14 14 14 13 13 12 12 11 11 11 11 11 10 10 10 10
14 15 16 17 17 16 16 16 15 14 15 16 17 16 18 21 20 21 20 19 19 18 17 16 16 15 15 14 14 14 14 13 13 12 12 11 11 11 10 10 10 10 10 10
15 15 17 17 18 17 16 16 17 16 16 15 17 18 19 20 19 19 19 19 18 17 17 16 15 14 14 14 14 14 14 13 13 12 12 11 11 11 10 10 10 10 10 10
17 16 16 17 17 17 17 16 15 15 14 14 16 17 17 18 18 18 18 18 18 17 16 16 15 14 14 13 13 13 13 13 13 12 12 11 11 11 10 10 10 10 10 10
17 16 16 15 15 15 16 16 16 15 15 15 15 17 19 19 19 18 18 19 18 17 16 16 15 14 14 13 13 13 13 12 12 12 12 11 11 11 10 10 10 10 10 10
16 16 14 15 16 17 16 16 16 15 15 15 15 16 20 19 18 18 18 18 18 17 16 16 15 14 14 13 13 13 12 12 12 12 12 11 11 11 10 10 10 10 10 10
16 15 13 13 14 15 15 16 16 16 16 15 15 16 19 18 18 19 19 18 18 17 16 16 15 14 14 13 13 12 12 12 12 12 11 11 11 11 10 10 10 10 10 10
16 14 14 13 14 14 14 15 16 16 15 15 15 17 18 18 17 17 19 18 18 17 16 16 15 15 14 13 13 12 12 12 12 11 11 11 11 10 10 10 10 10 10 9
15 14 14 15 16 16 15 15 15 16 16 15 16 17 18 18 17 18 19 18 18 17 16 16 15 15 14 13 13 12 12 12 11 11 11 11 10 10 10 10 9 9 9 9
13 13 14 14 15 16 15 15 15 15 16 16 16 16 18 19 19 19 19 18 18 17 16 16 15 15 14 14 13 12 12 11 11 11 11 10 10 10 9 9 9 9 9 9
12 12 12 12 14 14 13 15 15 15 15 16 15 16 18 17 17 18 18 18 18 17 16 16 15 15 15 14 13 13 12 11 11 10 10 10 9 9 9 9 9 9 8 8
12 12 12 11 13 11 13 16 16 16 16 16 16 17 17 17 18 18 18 18 17 17 16 16 15 15 14 14 13 12 12 11 10 10 10 9 9 9 9 8 8 8 8 7
12 12 11 10 11 12 14 15 16 15 15 16 16 16 16 17 17 16 17 17 17 16 16 15 15 14 14 13 13 12 11 10 10 9 9 9 8 8 8 8 8 7 7 7
12 12 11 10 10 11 14 15 16 15 14 16 16 15 15 15 13 13 16 16 16 15 15 15 14 14 13 13 12 11 11 10 10 9 9 8 8 8 7 7 7 7 6 6
10 10 10 10 10 12 15 15 15 13 13 16 17 16 15 13 14 15 15 15 15 15 14 14 13 13 12 12 11 11 10 10 9 9 8 8 7 7 7 6 6 6 5 5
10 10 10 10 10 11 13 14 14 14 16 17 17 17 16 16 15 15 15 14 14 14 13 13 13 12 12 11 11 10 9 9 9 8 8 7 7 6 6 6 5 5 5 4
11 11 11 11 12 13 14 14 16 17 16 16 16 16 16 15 14 14 13 13 13 13 12 12 12 11 11 10 10 10 9 9 8 8 7 7 6 6 5 5 5 4 4 3
11 12 12 12 12 12 14 15 15 16 15 16 16 16 15 14 14 13 13 12 12 12 12 11 11 10 10 10 9 9 8 8 8 7 7 6 6 5 5 4 4 3 3 3
11 12 12 12 12 12 13 14 15 15 15 15 15 15 15 14 13 13 12 12 12 11 11 11 10 10 9 9 8 8 8 7 7 7 6 6 5 5 4 4 3 3 2 2
11 11 12 12 12 12 12 14 14 14 14 14 14 13 13 14 13 12 12 12 11 11 10 10 10 9 9 8 8 7 7 7 6 6 5 5 4 4 3 3 2 2 2 1
Wind_Speed
12 11 15 15 16 14 11 9 8 7 3 6 9 12 13 12 12 12 12 11 11 11 9 10 10 10 10 11 12 14 14 13 12 11 10 9 8 7 6 7 12 13 12 12
12 19 18 15 13 15 15 13 11 8 5 4 8 13 14 14 14 13 11 10 10 8 7 9 10 10 11 11 11 12 14 14 13 11 10 8 7 6 6 6 9 12 12 12
24 13 17 18 16 15 15 13 11 9 7 6 9 11 12 11 11 9 9 9 9 9 7 8 11 11 10 11 12 11 13 13 13 11 9 7 6 5 4 6 6 8 12 11
20 18 15 17 17 15 13 11 10 9 7 6 6 7 8 9 9 9 9 8 7 7 6 7 10 11 11 10 10 10 12 12 12 12 12 12 9 7 7 7 6 7 10 11
13 18 17 18 17 15 9 4 6 7 8 9 10 9 8 9 9 7 6 5 5 4 5 7 9 10 10 9 9 9 10 11 11 12 13 12 9 7 6 8 9 8 6 9
15 12 16 17 12 10 8 4 3 5 5 10 12 10 8 7 7 4 4 4 3 5 5 5 7 9 9 8 8 8 10 10 11 12 12 12 11 10 10 10 9 8 6 6
17 15 12 10 11 11 10 7 5 6 7 9 9 9 8 5 3 4 3 2 3 5 5 6 8 10 10 10 10 9 11 11 11 12 12 12 12 12 12 11 10 9 7 5
18 16 15 10 13 12 15 14 9 7 6 4 6 8 6 4 5 5 5 4 3 5 6 7 8 9 10 11 11 11 11 11 12 12 12 11 11 9 8 10 9 9 7 7
16 14 15 14 11 12 14 15 12 6 7 5 6 7 7 6 6 6 7 6 5 5 6 7 8 9 10 11 11 11 12 11 12 12 11 10 11 10 9 10 8 7 7 7
10 12 14 15 10 13 11 11 7 8 6 7 8 11 8 10 9 8 7 7 6 7 7 8 8 9 10 11 10 11 11 11 11 11 10 9 9 9 10 9 10 9 9 9
15 10 11 14 18 19 14 14 10 9 8 5 5 6 5 8 9 9 8 8 8 8 7 7 7 8 9 10 11 11 11 10 10 11 10 9 9 9 9 9 10 9 9 10
16 7 9 12 11 12 17 17 15 11 9 9 6 5 3 8 9 9 8 7 7 8 7 7 7 8 9 10 10 11 11 11 11 10 10 9 9 9 10 9 9 10 10 10
15 8 9 8 8 12 14 18 17 14 9 9 10 7 5 7 8 7 7 7 6 7 7 7 7 8 9 9 9 10 10 10 10 10 10 10 10 10 10 10 9 10 10 9
15 9 11 14 9 14 15 17 18 17 14 15 14 10 6 8 9 8 8 8 7 7 8 7 7 8 8 9 9 9 9 9 10 10 10 10 10 10 10 9 9 9 10 10
10 12 12 11 8 15 16 18 21 22 20 15 14 14 11 9 9 9 8 7 6 7 7 8 8 8 8 8 9 9 9 9 9 10 10 9 9 8 8 9 9 9 9 9
8 9 11 13 12 10 13 19 21 23 21 19 15 14 9 6 5 6 7 7 7 7 7 7 8 8 8 9 9 9 9 9 9 9 9 8 8 8 8 8 8 8 8 8
10 9 10 12 12 8 13 18 20 18 18 18 20 17 9 8 7 7 7 7 7 7 7 8 8 7 7 8 8 9 8 8 9 8 8 8 8 8 8 8 8 8 8 7
11 13 7 6 9 12 11 10 14 17 17 17 15 10 10 9 6 5 5 6 7 6 6 6 6 6 6 6 7 7 7 8 8 8 8 8 8 8 7 8 8 7 6 7
12 11 7 6 9 9 7 10 14 16 17 16 16 13 10 6 2 4 5 5 6 5 5 5 5 5 6 6 7 8 8 8 8 7 7 7 8 8 8 8 7 6 6 6
12 10 7 6 8 10 9 11 10 9 13 13 15 14 11 9 7 8 5 6 6 6 5 5 5 6 6 6 8 8 8 8 7 7 7 7 7 7 7 7 6 5 5 5
13 11 12 8 7 8 6 10 12 11 10 9 13 12 11 12 10 7 8 7 7 7 7 7 7 6 6 6 8 7 7 6 6 6 6 6 6 6 6 5 4 4 4 4
13 10 11 9 8 9 5 10 12 6 3 5 8 8 8 8 8 9 9 8 8 7 7 7 7 6 5 7 8 7 6 6 6 6 6 5 5 5 4 5 4 4 4 4
12 11 8 9 9 4 9 8 7 5 4 4 5 6 8 8 8 9 9 9 8 8 7 7 8 7 6 6 7 7 5 6 6 6 5 5 4 4 4 4 4 4 4 4
8 9 8 6 7 8 7 5 4 3 4 4 6 7 8 8 9 9 9 8 8 7 7 7 8 7 6 5 6 6 6 6 6 5 4 4 4 3 3 3 3 3 4 4
6 9 9 8 5 7 8 8 6 4 5 6 6 6 8 10 10 9 9 9 8 7 6 7 7 7 6 6 6 6 6 6 6 5 4 4 3 3 2 2 3 4 4 5
7 8 12 9 9 7 8 9 8 7 7 7 7 6 6 8 10 9 9 8 8 8 7 7 7 7 6 6 6 6 5 5 5 4 3 3 2 2 2 2 2 4 5 7
Wind_Direction
195 209 214 213 216 235 259 261 257 261 226 205 240 259 266 263 258 252 245 239 239 232 210 187 178 172 172 175 175 175 175 179 176 177 177 178 182 176 172 170 174 176 179 179
198 218 219 219 222 227 245 260 267 274 254 227 256 265 266 258 253 247 246 242 242 239 215 186 175 173 177 180 180 176 176 179 180 178 176 175 171 169 166 159 169 175 176 176
211 210 211 222 223 223 230 238 250 265 286 269 273 272 258 258 246 235 235 237 239 226 212 187 177 177 176 182 182 183 178 177 177 169 162 156 146 143 153 163 169 173 172 170
222 220 204 212 223 221 231 227 241 259 275 270 259 283 265 263 249 226 220 220 224 217 201 187 177 176 178 179 174 177 172 173 174 167 167 167 170 172 175 168 169 171 169 165
216 209 212 214 215 217 222 220 233 244 256 267 264 269 262 241 240 219 202 187 183 185 190 186 178 173 169 162 162 168 166 171 172 170 171 174 175 173 160 160 164 169 166 162
227 213 209 216 214 208 197 193 233 244 248 253 235 235 267 236 223 192 155 139 160 165 174 177 165 157 153 147 152 161 166 172 173 174 177 182 178 170 164 166 169 170 166 164
221 224 212 197 194 196 186 180 202 210 215 237 212 219 245 227 156 140 145 155 152 155 167 175 163 159 156 155 162 170 172 176 177 180 186 187 181 175 173 170 171 170 168 169
205 212 203 196 197 192 196 196 198 200 214 219 185 222 241 208 149 145 151 153 155 159 168 174 169 165 163 164 169 177 180 180 181 184 189 188 181 178 174 171 170 174 173 173
197 210 186 190 198 191 193 210 228 270 291 284 239 222 224 201 178 169 160 163 169 166 167 171 170 168 167 170 176 181 182 182 183 184 186 186 180 175 170 168 167 169 164 163
206 200 185 183 191 219 204 189 193 215 226 242 248 237 223 194 192 174 164 165 164 162 167 173 176 175 172 171 175 180 184 184 181 182 186 185 178 172 167 167 167 165 161 159
231 213 181 175 193 196 201 201 196 202 224 221 241 243 203 172 163 159 160 157 157 163 169 174 177 174 170 168 173 181 185 182 181 183 183 179 177 170 165 165 166 164 161 161
212 211 197 197 198 204 205 208 203 201 209 216 245 265 124 131 137 146 153 152 154 160 164 168 171 169 170 173 177 182 183 183 182 181 179 179 175 169 168 169 168 164 165 167
199 196 181 187 200 208 216 215 215 221 233 226 221 238 167 141 147 155 164 170 167 164 163 166 170 175 178 178 179 182 183 183 179 176 178 178 177 175 175 174 170 168 168 170
193 202 200 198 190 186 206 212 212 214 225 233 233 232 201 180 181 181 184 184 181 172 168 172 178 182 182 182 182 182 185 180 175 174 177 181 181 179 176 171 169 170 169 172
187 210 219 222 206 181 197 206 210 215 220 225 230 231 226 206 196 190 186 184 185 175 179 182 184 185 183 183 184 182 183 178 173 175 179 181 175 171 170 169 168 167 170 176
184 200 216 230 228 216 208 209 211 218 224 233 241 244 238 231 205 200 195 193 193 189 190 185 183 183 184 183 182 178 179 175 169 174 178 170 167 167 168 168 166 169 175 176
189 190 201 222 221 231 234 215 212 218 223 225 235 238 237 239 226 215 205 200 197 193 187 182 182 184 184 179 175 175 172 163 165 171 170 167 167 169 171 169 171 178 181 180
196 198 195 200 198 223 232 205 210 220 225 223 231 231 223 225 220 211 197 195 198 189 178 174 172 172 169 160 157 155 151 153 160 164 165 166 166 168 168 170 179 184 184 188
202 197 190 190 211 238 228 205 203 211 230 220 223 225 219 204 226 250 214 183 175 165 155 154 151 151 148 148 147 141 145 148 155 164 166 166 165 167 172 181 186 187 187 196
200 199 186 184 204 223 223 192 184 190 240 218 212 216 205 179 210 231 184 158 142 128 123 124 121 121 132 139 135 137 146 151 163 166 164 161 163 169 178 184 186 187 190 199
192 197 196 194 210 241 225 169 149 184 228 202 200 202 191 192 201 170 140 131 126 124 123 120 116 118 128 128 127 136 141 155 155 147 148 155 161 168 173 176 179 181 190 196
183 185 193 197 206 228 177 156 173 195 161 166 177 178 171 168 150 142 137 133 128 124 121 119 117 113 112 121 127 133 142 140 129 133 143 152 156 161 163 168 180 183 186 199
190 188 184 196 212 189 166 183 192 153 150 151 150 148 145 146 149 145 143 139 135 131 126 120 119 114 106 111 124 133 135 125 125 131 141 145 146 151 158 168 181 187 190 202
194 187 191 200 205 189 190 184 176 159 148 137 137 138 141 146 146 144 143 139 134 129 128 125 122 121 120 114 113 122 121 120 125 135 141 141 144 153 163 172 180 190 202 212
191 185 199 212 187 159 198 198 182 153 126 117 122 135 147 143 145 146 145 142 138 133 130 128 131 134 134 126 116 116 120 124 130 136 137 138 147 161 181 196 205 209 216 217
196 188 195 206 187 178 207 198 177 166 168 157 144 136 137 142 144 139 138 136 134 134 131 131 132 133 132 124 119 117 118 123 129 135 141 148 158 177 193 216 266 256 256 258
Height
1483 1486 1485 1483 1484 1484 1483 1484 1485 1480 1476 1482 1485 1483 1479 1476 1475 1474 1473 1473 1474 1475 1476 1478 1480 1483 1486 1490 1493 1495 1498 1502 1506 1510 1513 1517 1520 1524 1527 1530 1532 1535 1537 1539
1479 1478 1475 1476 1478 1480 1482 1485 1484 1479 1475 1479 1482 1479 1472 1469 1467 1466 1466 1466 1468 1469 1470 1472 1474 1477 1480 1484 1487 1490 1493 1497 1501 1504 1508 1512 1517 1520 1523 1526 1529 1531 1533 1535
1467 1465 1469 1472 1474 1477 1479 1482 1483 1483 1478 1477 1481 1478 1469 1461 1459 1459 1460 1461 1462 1463 1465 1467 1469 1472 1475 1478 1481 1485 1488 1492 1496 1500 1505 1510 1513 1517 1519 1522 1525 1527 1530 1532
1460 1460 1462 1466 1469 1471 1477 1473 1477 1480 1486 1487 1481 1488 1469 1460 1455 1454 1454 1455 1457 1458 1460 1462 1464 1466 1469 1473 1477 1480 1484 1488 1492 1496 1500 1503 1506 1509 1513 1517 1520 1524 1526 1529
1451 1452 1456 1460 1461 1465 1469 1470 1474 1478 1484 1488 1483 1487 1469 1455 1454 1450 1450 1451 1452 1454 1456 1457 1459 1461 1465 1468 1472 1476 1480 1483 1487 1491 1495 1499 1502 1506 1510 1513 1516 1519 1522 1525
1444 1444 1448 1452 1456 1460 1465 1471 1475 1477 1484 1492 1479 1482 1469 1454 1448 1446 1446 1448 1449 1451 1452 1454 1456 1458 1461 1464 1467 1472 1475 1479 1483 1487 1491 1495 1498 1502 1506 1508 1512 1515 1518 1520
1444 1442 1441 1445 1453 1458 1463 1476 1489 1492 1494 1485 1465 1468 1459 1442 1439 1441 1443 1445 1447 1448 1449 1451 1452 1454 1456 1459 1463 1467 1471 1474 1478 1482 1486 1491 1494 1498 1501 1504 1507 1510 1513 1515
1443 1444 1438 1440 1445 1453 1458 1465 1478 1485 1481 1467 1461 1463 1448 1435 1435 1437 1440 1443 1445 1446 1446 1448 1449 1451 1453 1456 1459 1463 1467 1470 1474 1478 1482 1486 1490 1494 1497 1500 1503 1506 1508 1511
1429 1434 1430 1434 1438 1444 1454 1458 1456 1465 1464 1469 1460 1446 1438 1432 1433 1435 1438 1440 1442 1443 1444 1445 1447 1448 1450 1453 1456 1459 1463 1466 1470 1473 1478 1482 1486 1490 1493 1496 1499 1502 1504 1507
1413 1425 1424 1429 1436 1438 1441 1448 1459 1466 1474 1477 1459 1450 1443 1434 1433 1433 1435 1437 1439 1441 1442 1443 1444 1446 1448 1450 1453 1457 1460 1463 1466 1470 1474 1478 1481 1485 1488 1492 1494 1497 1500 1503
1409 1417 1422 1426 1431 1434 1440 1444 1446 1453 1455 1463 1462 1447 1421 1423 1426 1429 1432 1434 1436 1438 1439 1441 1442 1444 1446 1448 1450 1453 1456 1460 1462 1466 1470 1473 1477 1481 1484 1487 1489 1492 1495 1498
1404 1411 1421 1422 1421 1423 1429 1431 1437 1449 1449 1447 1453 1444 1416 1418 1421 1425 1429 1432 1434 1435 1437 1438 1440 1442 1443 1445 1447 1450 1453 1456 1458 1462 1465 1469 1473 1476 1479 1482 1485 1488 1490 1493
1400 1409 1422 1430 1430 1425 1425 1425 1427 1432 1438 1442 1448 1440 1417 1418 1421 1423 1427 1429 1431 1433 1434 1436 1438 1439 1440 1442 1444 1446 1449 1452 1455 1458 1461 1464 1467 1470 1473 1476 1479 1482 1485 1488
1393 1400 1407 1414 1412 1414 1420 1420 1421 1428 1434 1435 1432 1428 1421 1419 1420 1422 1424 1426 1428 1430 1432 1433 1435 1436 1437 1439 1441 1443 1445 1448 1451 1453 1456 1459 1462 1465 1468 1471 1474 1477 1480 1482
1387 1395 1396 1396 1395 1401 1408 1411 1414 1417 1418 1424 1420 1420 1416 1415 1416 1417 1419 1422 1425 1427 1428 1430 1431 1432 1434 1435 1437 1439 1441 1444 1446 1449 1451 1454 1458 1461 1464 1466 1469 1472 1474 1477
1385 1391 1395 1397 1394 1395 1400 1402 1405 1408 1409 1411 1412 1412 1406 1407 1409 1412 1415 1418 1420 1422 1424 1426 1427 1429 1430 1431 1433 1435 1437 1439 1442 1444 1447 1450 1453 1456 1459 1461 1464 1467 1469 1471
1385 1390 1397 1400 1395 1397 1402 1395 1397 1400 1399 1403 1407 1404 1404 1405 1406 1408 1410 1413 1415 1418 1420 1421 1423 1424 1426 1427 1429 1430 1433 1435 1438 1440 1443 1446 1448 1451 1453 1456 1459 1461 1463 1465
1382 1386 1393 1398 1400 1409 1389 1380 1385 1390 1390 1392 1394 1395 1398 1400 1402 1404 1406 1408 1411 1413 1415 1417 1418 1420 1422 1423 1425 1427 1430 1432 1434 1436 1439 1441 1444 1446 1449 1451 1453 1456 1458 1459
1376 1382 1391 1398 1398 1392 1380 1375 1377 1384 1384 1383 1386 1389 1392 1395 1398 1400 1402 1404 1406 1409 1411 1413 1414 1416 1418 1419 1421 1423 1425 1428 1430 1432 1434 1437 1439 1442 1444 1446 1448 1450 1452 1454
1371 1376 1386 1391 1395 1392 1373 1368 1368 1377 1383 1374 1377 1381 1386 1391 1400 1396 1397 1400 1402 1404 1406 1408 1410 1412 1414 1416 1418 1420 1422 1424 1426 1428 1431 1433 1436 1438 1440 1442 1444 1445 1447 1448
1370 1374 1379 1385 1387 1376 1362 1360 1365 1384 1377 1367 1369 1373 1378 1383 1387 1390 1393 1396 1398 1400 1403 1405 1407 1409 1411 1413 1415 1417 1419 1421 1423 1426 1428 1430 1432 1434 1436 1438 1439 1441 1442 1443
1361 1368 1373 1377 1381 1375 1358 1358 1364 1364 1361 1361 1364 1367 1372 1376 1381 1386 1389 1392 1395 1397 1400 1402 1404 1406 1408 1410 1412 1414 1416 1419 1421 1423 1425 1427 1429 1430 1432 1433 1435 1436 1437 1437
1349 1352 1356 1360 1360 1351 1351 1353 1355 1357 1359 1360 1362 1365 1369 1373 1377 1381 1386 1389 1392 1395 1397 1400 1402 1404 1406 1408 1410 1412 1414 1417 1418 1420 1422 1424 1425 1427 1428 1429 1430 1431 1431 1431
1341 1343 1347 1350 1348 1348 1349 1350 1353 1355 1357 1359 1361 1364 1367 1370 1374 1379 1383 1386 1389 1392 1395 1398 1400 1402 1404 1406 1409 1411 1413 1414 1416 1417 1419 1420 1421 1423 1424 1425 1425 1426 1426 1426
1336 1338 1341 1343 1342 1344 1346 1348 1351 1353 1355 1358 1361 1363 1366 1369 1372 1376 1380 1384 1387 1390 1393 1396 1398 1400 1402 1405 1407 1409 1410 1412 1413 1415 1416 1417 1418 1419 1420 1420 1421 1421 1421 1421
1330 1331 1335 1337 1337 1340 1342 1344 1348 1350 1353 1356 1358 1362 1365 1368 1371 1374 1378 1381 1385 1388 1391 1394 1396 1398 1401 1403 1405 1406 1408 1409 1411 1412 1413 1414 1414 1415 1415 1415 1416 1416 1416 1416